This is the latest recevied weather packets stored in our database for station/object KI6SYE. If no packets are shown the sender has not sent any weather packets the latest 1 day(s).
| Time | Temp. | Humidity | Pressure | Rain* | Wind** | Luminosity | Snow |
|---|---|---|---|---|---|---|---|
| 1777997334 | 15.56° C | 80% | 1014.1 hPa | 0 mm | 2.24 m/s, 306° | 472 W/m² | - |
| 1777997032 | 15.56° C | 80% | 1014.1 hPa | 0 mm | 1.79 m/s, 301° | 456 W/m² | - |
| 1777996729 | 15.56° C | 80% | 1014.2 hPa | 0 mm | 1.79 m/s, 293° | 447 W/m² | - |
| 1777996424 | 15.56° C | 79% | 1013.9 hPa | 0 mm | 2.24 m/s, 283° | 424 W/m² | - |
| 1777996121 | 16.11° C | 77% | 1014 hPa | 0 mm | 1.79 m/s, 292° | 407 W/m² | - |
| 1777995817 | 15.56° C | 77% | 1014.1 hPa | 0 mm | 0.89 m/s, 304° | 392 W/m² | - |
| 1777995515 | 15° C | 78% | 1014.1 hPa | 0 mm | 2.24 m/s, 289° | 373 W/m² | - |
| 1777995212 | 15° C | 80% | 1014.2 hPa | 0 mm | 1.34 m/s, 311° | 357 W/m² | - |
| 1777994909 | 15° C | 81% | 1014 hPa | 0 mm | 2.24 m/s, 263° | 339 W/m² | - |
| 1777994606 | 15° C | 81% | 1014 hPa | 0 mm | 2.24 m/s, 275° | 322 W/m² | - |
| 1777994305 | 15° C | 82% | 1014.1 hPa | 0 mm | 2.24 m/s, 271° | 306 W/m² | - |
| 1777994002 | 15° C | 83% | 1013.9 hPa | 0 mm | 2.24 m/s, 209° | 286 W/m² | - |
| 1777993699 | 15° C | 82% | 1014.1 hPa | 0 mm | 3.13 m/s, 260° | 272 W/m² | - |
| 1777993396 | 15° C | 82% | 1014 hPa | 0 mm | 2.24 m/s, 274° | 251 W/m² | - |
| 1777993090 | 15° C | 83% | 1013.9 hPa | 0 mm | 1.79 m/s, 259° | 234 W/m² | - |
| 1777992790 | 15° C | 83% | 1014 hPa | 0 mm | 3.13 m/s, 232° | 218 W/m² | - |
| 1777992486 | 15° C | 84% | 1013.9 hPa | 0 mm | 2.68 m/s, 286° | 191 W/m² | - |
| 1777992185 | 15° C | 84% | 1013.8 hPa | 0 mm | 3.13 m/s, 290° | 187 W/m² | - |
| 1777991881 | 14.44° C | 85% | 1013.8 hPa | 0 mm | 1.79 m/s, 273° | 164 W/m² | - |
| 1777991579 | 14.44° C | 85% | 1013.7 hPa | 0 mm | 3.13 m/s, 269° | 98 W/m² | - |
| 1777991276 | 14.44° C | 85% | 1013.7 hPa | 0 mm | 2.24 m/s, 288° | 118 W/m² | - |
| 1777990973 | 14.44° C | 85% | 1013.6 hPa | 0 mm | 2.68 m/s, 277° | 98 W/m² | - |
| 1777990671 | 14.44° C | 85% | 1013.9 hPa | 0 mm | 0.89 m/s, 256° | 93 W/m² | - |
| 1777990368 | 14.44° C | 85% | 1013.6 hPa | 0 mm | 1.34 m/s, 227° | 85 W/m² | - |
| 1777990064 | 13.89° C | 86% | 1013.7 hPa | 0 mm | 1.79 m/s, 261° | 53 W/m² | - |
* Rain latest hour (hover to see other rain measurements)
** Current wind speed in m/s (hover to see current wind gust speed)